LNR21VT FACT-FAOR

Flight info

Callsign LNR21VT
Flight time 1h 35m
Altitude 41000
Route TETAN UZ2 NIBEX NIBEX1B
Aircraft A359/H-SDE2E3GHIJ1J3J4J5LM1ORWXY/LB1D1

Departure

Time 2026-05-04 16:13
Airport Cape Town International Airport (FACT)

Arrival

Time 2026-05-04 17:49
Airport O.R. Tambo International Airport (FAOR)
Time Latitude Longitude Altitude Speed Heading
2026-05-04 15:49 -33.96832 18.59784 173 ft 0 kts 255°
2026-05-04 16:04 -33.96830 18.59793 173 ft 3 kts 255°
2026-05-04 16:04 -33.96818 18.59838 173 ft 3 kts 220°
2026-05-04 16:04 -33.96802 18.59849 173 ft 3 kts 182°
2026-05-04 16:05 -33.96794 18.59849 173 ft 0 kts 170°
2026-05-04 16:07 -33.96943 18.59913 173 ft 16 kts 160°
2026-05-04 16:08 -33.97061 18.59953 173 ft 19 kts 171°
2026-05-04 16:08 -33.97526 18.60102 173 ft 27 kts 155°
2026-05-04 16:09 -33.97901 18.60271 173 ft 31 kts 160°
2026-05-04 16:09 -33.98339 18.60459 167 ft 35 kts 160°
2026-05-04 16:10 -33.98684 18.60608 162 ft 19 kts 160°
2026-05-04 16:11 -33.98789 18.60765 162 ft 6 kts 78°
2026-05-04 16:11 -33.98779 18.60822 162 ft 9 kts 77°
2026-05-04 16:12 -33.98716 18.60869 162 ft 0 kts 346°
2026-05-04 16:12 -33.97058 18.60342 273 ft 172 kts 344°
2026-05-04 16:13 -33.94863 18.59612 2046 ft 158 kts 341°
2026-05-04 16:13 -33.92586 18.58665 2734 ft 190 kts 336°
2026-05-04 16:14 -33.90531 18.56309 3423 ft 225 kts 304°
2026-05-04 16:14 -33.87959 18.53783 4321 ft 254 kts 328°
2026-05-04 16:15 -33.82858 18.53252 6462 ft 268 kts 34°
2026-05-04 16:16 -33.79954 18.56313 7665 ft 282 kts 37°
2026-05-04 16:16 -33.75231 18.60613 9693 ft 292 kts 41°
2026-05-04 16:17 -33.73017 18.64923 10607 ft 320 kts 61°
2026-05-04 16:18 -33.70472 18.72864 11814 ft 353 kts 65°
2026-05-04 16:18 -33.69627 18.75662 12371 ft 357 kts 65°
2026-05-04 16:19 -33.66956 18.84129 13932 ft 369 kts 63°
2026-05-04 16:19 -33.65065 18.89946 14979 ft 376 kts 62°
2026-05-04 16:20 -33.62700 18.97198 16155 ft 386 kts 61°
2026-05-04 16:20 -33.60723 19.03265 17096 ft 395 kts 60°
2026-05-04 16:21 -33.57689 19.12557 18507 ft 406 kts 59°
2026-05-04 16:22 -33.55614 19.18902 19464 ft 410 kts 59°
2026-05-04 16:22 -33.52449 19.28523 20687 ft 418 kts 58°
2026-05-04 16:23 -33.49572 19.37258 21834 ft 427 kts 58°
2026-05-04 16:24 -33.45196 19.50544 23385 ft 427 kts 58°
2026-05-04 16:25 -33.42612 19.58330 23947 ft 437 kts 57°
2026-05-04 16:26 -33.38489 19.70788 24840 ft 441 kts 57°
2026-05-04 16:26 -33.35048 19.81046 25840 ft 447 kts 57°
2026-05-04 16:27 -33.32725 19.87984 26572 ft 450 kts 57°
2026-05-04 16:28 -33.28796 19.98131 27738 ft 435 kts 43°
2026-05-04 16:28 -33.23106 20.06325 29041 ft 425 kts 35°
2026-05-04 16:29 -33.15053 20.16814 30602 ft 433 kts 35°
2026-05-04 16:30 -33.08885 20.24944 31547 ft 446 kts 36°
2026-05-04 16:31 -33.04711 20.30467 32151 ft 453 kts 36°
2026-05-04 16:31 -32.98330 20.38897 33032 ft 463 kts 36°
2026-05-04 16:32 -32.91772 20.47533 33750 ft 471 kts 35°
2026-05-04 16:33 -32.87370 20.53319 34273 ft 477 kts 35°
2026-05-04 16:33 -32.82901 20.59186 34967 ft 477 kts 35°
2026-05-04 16:34 -32.78424 20.65060 35607 ft 478 kts 35°
2026-05-04 16:34 -32.76200 20.67975 36035 ft 476 kts 35°
2026-05-04 16:35 -32.69490 20.76736 36874 ft 478 kts 34°
2026-05-04 16:35 -32.62771 20.85500 37915 ft 475 kts 34°
2026-05-04 16:36 -32.60575 20.88360 38300 ft 473 kts 34°
2026-05-04 16:36 -32.56111 20.94151 38807 ft 475 kts 33°
2026-05-04 16:37 -32.51685 20.99895 39439 ft 473 kts 33°
2026-05-04 16:37 -32.49459 21.02780 39663 ft 473 kts 33°
2026-05-04 16:37 -32.44984 21.08557 40002 ft 477 kts 34°
2026-05-04 16:38 -32.40521 21.14323 40439 ft 477 kts 34°
2026-05-04 16:39 -32.33796 21.22999 40969 ft 480 kts 34°
2026-05-04 16:39 -32.29227 21.28863 40983 ft 489 kts 34°
2026-05-04 16:40 -32.19950 21.40783 40982 ft 493 kts 34°
2026-05-04 16:41 -32.08347 21.55637 40991 ft 492 kts 34°
2026-05-04 16:43 -31.96726 21.70442 40989 ft 492 kts 34°
2026-05-04 16:43 -31.89765 21.79282 40989 ft 492 kts 34°
2026-05-04 16:45 -31.75793 21.96962 40988 ft 492 kts 34°
2026-05-04 16:46 -31.64147 22.11635 40991 ft 491 kts 34°
2026-05-04 16:47 -31.54775 22.23397 40988 ft 493 kts 34°
2026-05-04 16:48 -31.45424 22.35104 40992 ft 493 kts 34°
2026-05-04 16:49 -31.36024 22.46829 40983 ft 494 kts 34°
2026-05-04 16:50 -31.26595 22.58556 40982 ft 495 kts 34°
2026-05-04 16:51 -31.19529 22.67318 40983 ft 495 kts 34°
2026-05-04 16:52 -31.10063 22.79030 40989 ft 497 kts 33°
2026-05-04 16:53 -31.02952 22.87799 40990 ft 496 kts 34°
2026-05-04 16:54 -30.93438 22.99464 40989 ft 497 kts 33°
2026-05-04 16:55 -30.79119 23.16945 41001 ft 498 kts 34°
2026-05-04 16:56 -30.67121 23.31533 41002 ft 499 kts 34°
2026-05-04 16:57 -30.59930 23.40252 41000 ft 499 kts 34°
2026-05-04 16:58 -30.50318 23.51872 41010 ft 500 kts 34°
2026-05-04 17:00 -30.35783 23.69377 41006 ft 503 kts 34°
2026-05-04 17:01 -30.23620 23.83966 41013 ft 505 kts 34°
2026-05-04 17:02 -30.13866 23.95627 41013 ft 505 kts 34°
2026-05-04 17:03 -30.06552 24.04346 41014 ft 505 kts 34°
2026-05-04 17:03 -29.99207 24.13082 41031 ft 504 kts 34°
2026-05-04 17:04 -29.89435 24.24674 41026 ft 504 kts 34°
2026-05-04 17:05 -29.79655 24.36241 41032 ft 505 kts 34°
2026-05-04 17:06 -29.72265 24.44957 41038 ft 506 kts 34°
2026-05-04 17:07 -29.65735 24.52645 41032 ft 507 kts 34°
2026-05-04 17:07 -29.59963 24.59426 41033 ft 507 kts 34°
2026-05-04 17:08 -29.52576 24.68090 41032 ft 507 kts 34°
2026-05-04 17:09 -29.47624 24.73887 41047 ft 507 kts 35°
2026-05-04 17:09 -29.42678 24.79668 41050 ft 507 kts 35°
2026-05-04 17:10 -29.30301 24.94094 41053 ft 508 kts 35°
2026-05-04 17:11 -29.26160 24.98909 41056 ft 509 kts 35°
2026-05-04 17:12 -29.18711 25.07556 41064 ft 509 kts 35°
2026-05-04 17:13 -29.06260 25.21970 41065 ft 509 kts 35°
2026-05-04 17:14 -28.96317 25.33441 41070 ft 509 kts 35°
2026-05-04 17:15 -28.88828 25.42057 41076 ft 510 kts 36°
2026-05-04 17:16 -28.78843 25.53520 41080 ft 510 kts 36°
2026-05-04 17:17 -28.68802 25.65011 41087 ft 511 kts 36°
2026-05-04 17:18 -28.59582 25.75534 41095 ft 511 kts 36°
2026-05-04 17:19 -28.49518 25.86990 41115 ft 511 kts 36°
2026-05-04 17:20 -28.39474 25.98390 41118 ft 512 kts 36°
2026-05-04 17:20 -28.31898 26.06967 41118 ft 512 kts 37°
2026-05-04 17:21 -28.21821 26.18344 41103 ft 511 kts 37°
2026-05-04 17:22 -28.16762 26.24043 41121 ft 511 kts 36°
2026-05-04 17:23 -28.06695 26.35361 41128 ft 511 kts 36°
2026-05-04 17:24 -27.99109 26.43870 41128 ft 511 kts 36°
2026-05-04 17:25 -27.88978 26.55204 41127 ft 512 kts 37°
2026-05-04 17:26 -27.78878 26.66475 41137 ft 512 kts 37°
2026-05-04 17:26 -27.71275 26.74943 40483 ft 508 kts 37°
2026-05-04 17:27 -27.66258 26.80518 39123 ft 508 kts 37°
2026-05-04 17:27 -27.61214 26.86116 37805 ft 507 kts 37°
2026-05-04 17:28 -27.56183 26.91688 36440 ft 506 kts 37°
2026-05-04 17:29 -27.48682 26.99990 34488 ft 501 kts 37°
2026-05-04 17:29 -27.41330 27.08115 32918 ft 489 kts 37°
2026-05-04 17:30 -27.34121 27.16064 31350 ft 476 kts 37°
2026-05-04 17:31 -27.29447 27.21206 30334 ft 468 kts 38°
2026-05-04 17:31 -27.22553 27.28779 28835 ft 454 kts 38°
2026-05-04 17:32 -27.17992 27.33582 27836 ft 442 kts 33°
2026-05-04 17:33 -27.11020 27.40045 26369 ft 428 kts 33°
2026-05-04 17:33 -27.08736 27.42188 25879 ft 424 kts 33°
2026-05-04 17:34 -27.02078 27.48466 24417 ft 411 kts 34°
2026-05-04 17:34 -26.99904 27.50519 23935 ft 407 kts 34°
2026-05-04 17:35 -26.93496 27.56565 22479 ft 394 kts 34°
2026-05-04 17:35 -26.89410 27.60422 21918 ft 375 kts 34°
2026-05-04 17:35 -26.87448 27.62276 21782 ft 362 kts 33°
2026-05-04 17:36 -26.85548 27.64068 21652 ft 350 kts 33°
2026-05-04 17:36 -26.83696 27.65795 21318 ft 343 kts 32°
2026-05-04 17:36 -26.81709 27.67133 20939 ft 328 kts 15°
2026-05-04 17:36 -26.79612 27.68028 20671 ft 320 kts 21°
2026-05-04 17:37 -26.77812 27.69548 19791 ft 331 kts 39°
2026-05-04 17:37 -26.76278 27.71484 18803 ft 339 kts 44°
2026-05-04 17:37 -26.74766 27.73504 17983 ft 335 kts 44°
2026-05-04 17:37 -26.73261 27.75486 17062 ft 335 kts 44°
2026-05-04 17:38 -26.71729 27.77473 16320 ft 340 kts 44°
2026-05-04 17:38 -26.70146 27.79505 15959 ft 348 kts 44°
2026-05-04 17:38 -26.68579 27.81518 15477 ft 346 kts 44°
2026-05-04 17:38 -26.66996 27.83545 14980 ft 344 kts 44°
2026-05-04 17:39 -26.63923 27.87480 14501 ft 323 kts 44°
2026-05-04 17:39 -26.62473 27.89332 14382 ft 310 kts 44°
2026-05-04 17:39 -26.61075 27.91114 14169 ft 301 kts 44°
2026-05-04 17:40 -26.59759 27.92911 13793 ft 295 kts 48°
2026-05-04 17:40 -26.58525 27.94728 13116 ft 292 kts 49°
2026-05-04 17:40 -26.57281 27.96561 12240 ft 305 kts 49°
2026-05-04 17:40 -26.55982 27.98440 11851 ft 302 kts 49°
2026-05-04 17:41 -26.54704 28.00269 11635 ft 293 kts 49°
2026-05-04 17:41 -26.53440 28.02071 11347 ft 297 kts 49°
2026-05-04 17:41 -26.52168 28.03871 11072 ft 297 kts 49°
2026-05-04 17:41 -26.50860 28.05653 10762 ft 297 kts 51°
2026-05-04 17:42 -26.49550 28.07429 10462 ft 294 kts 43°
2026-05-04 17:42 -26.48078 28.08998 10166 ft 292 kts 39°
2026-05-04 17:42 -26.46579 28.10517 9853 ft 290 kts 39°
2026-05-04 17:42 -26.45108 28.11997 9559 ft 285 kts 39°
2026-05-04 17:43 -26.43650 28.13470 9252 ft 280 kts 39°
2026-05-04 17:43 -26.42222 28.14920 8961 ft 275 kts 39°
2026-05-04 17:43 -26.40818 28.16348 8672 ft 269 kts 39°
2026-05-04 17:43 -26.39329 28.17530 8467 ft 256 kts 24°
2026-05-04 17:44 -26.37712 28.18220 8342 ft 243 kts 12°
2026-05-04 17:44 -26.36114 28.18696 8199 ft 232 kts 12°
2026-05-04 17:44 -26.34588 28.19156 8072 ft 229 kts 13°
2026-05-04 17:44 -26.33049 28.19635 7994 ft 229 kts 13°
2026-05-04 17:45 -26.31509 28.20125 7987 ft 229 kts 13°
2026-05-04 17:45 -26.30024 28.20597 7991 ft 216 kts 13°
2026-05-04 17:45 -26.28635 28.21035 7948 ft 200 kts 13°
2026-05-04 17:45 -26.27310 28.21444 7720 ft 194 kts 13°
2026-05-04 17:46 -26.26041 28.21838 7462 ft 183 kts 13°
2026-05-04 17:46 -26.24865 28.22204 7225 ft 172 kts 13°
2026-05-04 17:46 -26.23748 28.22552 6984 ft 161 kts 13°
2026-05-04 17:46 -26.22704 28.22880 6767 ft 151 kts 14°
2026-05-04 17:47 -26.21721 28.23198 6566 ft 144 kts 14°
2026-05-04 17:47 -26.20760 28.23498 6404 ft 144 kts 13°
2026-05-04 17:47 -26.19789 28.23789 6229 ft 145 kts 13°
2026-05-04 17:47 -26.18825 28.24082 6022 ft 145 kts 13°
2026-05-04 17:48 -26.17858 28.24386 5831 ft 144 kts 13°
2026-05-04 17:48 -26.16892 28.24687 5642 ft 144 kts 15°
2026-05-04 17:48 -26.15932 28.24981 5523 ft 138 kts 14°
2026-05-04 17:48 -26.15219 28.25201 5519 ft 73 kts 16°
2026-05-04 17:49 -26.14884 28.25302 5515 ft 42 kts 13°
2026-05-04 17:49 -26.14610 28.25304 5512 ft 30 kts 346°
2026-05-04 17:49 -26.14533 28.25273 5515 ft 7 kts 321°
2026-05-04 17:49 -26.14497 28.25238 5516 ft 7 kts 318°
2026-05-04 17:50 -26.14485 28.25226 5516 ft 0 kts 319°
2026-05-04 17:50 -26.14484 28.25225 5516 ft 1 kts 322°
2026-05-04 17:50 -26.14473 28.25228 5516 ft 4 kts 13°
2026-05-04 17:51 -26.14402 28.25248 5517 ft 13 kts 14°
2026-05-04 17:51 -26.14304 28.25277 5516 ft 16 kts 15°
2026-05-04 17:51 -26.14191 28.25312 5516 ft 17 kts 15°
2026-05-04 17:51 -26.14075 28.25348 5518 ft 18 kts 15°
2026-05-04 17:52 -26.13950 28.25386 5517 ft 20 kts 15°
2026-05-04 17:52 -26.13810 28.25431 5515 ft 22 kts 17°
2026-05-04 17:52 -26.13657 28.25479 5511 ft 25 kts 15°
2026-05-04 17:52 -26.13487 28.25525 5514 ft 21 kts
2026-05-04 17:53 -26.13357 28.25501 5521 ft 18 kts 348°
2026-05-04 17:53 -26.13245 28.25476 5527 ft 15 kts 348°
2026-05-04 17:53 -26.13148 28.25453 5531 ft 13 kts 347°
2026-05-04 17:53 -26.13060 28.25418 5532 ft 14 kts 333°
2026-05-04 17:54 -26.12979 28.25354 5532 ft 15 kts 319°
2026-05-04 17:54 -26.12909 28.25263 5532 ft 16 kts 303°
2026-05-04 17:54 -26.12861 28.25152 5532 ft 16 kts 285°
2026-05-04 17:54 -26.12831 28.25030 5532 ft 17 kts 285°
2026-05-04 17:55 -26.12797 28.24898 5532 ft 19 kts 286°
2026-05-04 17:55 -26.12762 28.24756 5532 ft 20 kts 284°
2026-05-04 17:55 -26.12724 28.24603 5535 ft 20 kts 285°
2026-05-04 17:55 -26.12689 28.24467 5544 ft 16 kts 285°
2026-05-04 17:56 -26.12674 28.24406 5546 ft 3 kts 285°
2026-05-04 17:56 -26.12672 28.24400 5541 ft 0 kts 285°
2026-05-04 17:57 -26.12667 28.24381 5546 ft 6 kts 285°
2026-05-04 17:57 -26.12647 28.24302 5545 ft 15 kts 285°
2026-05-04 17:57 -26.12610 28.24161 5549 ft 22 kts 285°
2026-05-04 17:57 -26.12566 28.23987 5548 ft 19 kts 285°
2026-05-04 17:58 -26.12554 28.23915 5548 ft 12 kts 264°
2026-05-04 17:58 -26.12609 28.23864 5549 ft 11 kts 199°
2026-05-04 17:58 -26.12724 28.23827 5555 ft 15 kts 196°
2026-05-04 17:58 -26.12841 28.23790 5554 ft 19 kts 196°
2026-05-04 17:59 -26.12932 28.23762 5553 ft 21 kts 195°
2026-05-04 17:59 -26.13077 28.23718 5553 ft 17 kts 197°
2026-05-04 17:59 -26.13125 28.23576 5555 ft 14 kts 275°
2026-05-04 18:00 -26.13115 28.23471 5554 ft 12 kts 276°
2026-05-04 18:00 -26.13145 28.23411 5557 ft 7 kts 200°
2026-05-04 18:00 -26.13185 28.23406 5554 ft 5 kts 186°
2026-05-04 18:00 -26.13213 28.23402 5554 ft 3 kts 186°
2026-05-04 18:01 -26.13230 28.23391 5553 ft 2 kts 232°
2026-05-04 18:01 -26.13230 28.23382 5554 ft 2 kts 263°
2026-05-04 18:01 -26.13231 28.23356 5557 ft 4 kts 275°
2026-05-04 18:02 -26.13228 28.23327 5553 ft 0 kts 276°